Time,TemperatureF,DewpointF,PressureIn,WindDirection,WindDirectionDegrees,WindSpeedMPH,WindSpeedGustMPH,Humidity,HourlyPrecipIn,Conditions,Clouds,dailyrainin,SolarRadiationWatts/m^2,SoftwareType,DateUTC
2013-04-29 00:00:00,65.3,53.7,29.49,South,169,16.0,24.0,66,0.00,,---,0.00,0.00,VWS V14.01,2013-04-29 05:00:00,
2013-04-29 00:03:00,65.2,54.0,29.49,South,188,16.0,20.0,67,0.00,,---,0.00,0.00,VWS V14.01,2013-04-29 05:03:00,
2013-04-29 00:05:00,65.2,54.0,29.49,SSW,192,17.0,22.0,67,0.00,,---,0.00,0.00,VWS V14.01,2013-04-29 05:05:00,
2013-04-29 00:08:00,65.0,53.8,29.49,SSW,203,12.0,20.0,67,0.00,,---,0.00,0.00,VWS V14.01,2013-04-29 05:08:00,
2013-04-29 00:10:00,64.8,53.6,29.49,South,174,14.0,20.0,67,0.00,,---,0.00,0.00,VWS V14.01,2013-04-29 05:10:00,
2013-04-29 00:13:00,64.7,53.9,29.49,South,175,17.0,20.0,68,0.00,,---,0.00,0.00,VWS V14.01,2013-04-29 05:13:00,
2013-04-29 00:15:00,64.5,53.7,29.50,South,169,17.0,20.0,68,0.00,,---,0.00,0.00,VWS V14.01,2013-04-29 05:15:00,
2013-04-29 00:18:00,64.3,53.5,29.50,SSW,193,16.0,19.0,68,0.00,,---,0.00,0.00,VWS V14.01,2013-04-29 05:18:00,
2013-04-29 00:20:00,64.3,53.5,29.50,South,185,16.0,19.0,68,0.00,,---,0.00,0.00,VWS V14.01,2013-04-29 05:20:00,
2013-04-29 00:23:00,64.3,53.9,29.50,South,189,13.0,20.0,69,0.00,,---,0.00,0.00,VWS V14.01,2013-04-29 05:23:00,
2013-04-29 00:25:00,64.3,53.5,29.50,SSE,165,14.0,21.0,68,0.00,,---,0.00,0.00,VWS V14.01,2013-04-29 05:25:00,
2013-04-29 00:28:00,64.2,53.8,29.50,SSW,192,13.0,18.0,69,0.00,,---,0.00,0.00,VWS V14.01,2013-04-29 05:28:00,
2013-04-29 00:30:00,64.0,53.6,29.50,South,185,16.0,22.0,69,0.00,,---,0.00,0.00,VWS V14.01,2013-04-29 05:30:00,
2013-04-29 00:33:00,64.0,53.6,29.50,South,174,16.0,19.0,69,0.00,,---,0.00,0.00,VWS V14.01,2013-04-29 05:33:00,
2013-04-29 00:35:00,64.0,53.6,29.50,West,260,13.0,19.0,69,0.00,,---,0.00,0.00,VWS V14.01,2013-04-29 05:35:00,
2013-04-29 00:38:00,63.9,53.5,29.50,SSW,196,16.0,19.0,69,0.00,,---,0.00,0.00,VWS V14.01,2013-04-29 05:38:00,
2013-04-29 00:40:00,63.9,53.5,29.50,South,189,16.0,21.0,69,0.00,,---,0.00,0.00,VWS V14.01,2013-04-29 05:40:00,
2013-04-29 00:44:00,63.7,53.3,29.50,South,178,14.0,19.0,69,0.00,,---,0.00,0.00,VWS V14.01,2013-04-29 05:44:00,
2013-04-29 00:45:00,63.7,53.3,29.50,South,184,12.0,20.0,69,0.00,,---,0.00,0.00,VWS V14.01,2013-04-29 05:45:00,
2013-04-29 00:49:00,63.5,53.2,29.50,South,188,17.0,19.0,69,0.00,,---,0.00,0.00,VWS V14.01,2013-04-29 05:49:00,
2013-04-29 00:50:00,63.5,53.2,29.50,South,189,16.0,20.0,69,0.00,,---,0.00,0.00,VWS V14.01,2013-04-29 05:50:00,
2013-04-29 00:54:00,63.4,53.1,29.50,NW,326,11.0,19.0,69,0.00,,---,0.00,0.00,VWS V14.01,2013-04-29 05:54:00,
2013-04-29 00:55:00,63.4,53.5,29.50,SSW,209,18.0,20.0,70,0.00,,---,0.00,0.00,VWS V14.01,2013-04-29 05:55:00,
2013-04-29 00:59:00,63.2,53.3,29.50,SSW,195,16.0,22.0,70,0.00,,---,0.00,0.00,VWS V14.01,2013-04-29 05:59:00,
2013-04-29 01:00:00,63.2,53.3,29.50,SSW,192,14.0,22.0,70,0.00,,---,0.00,0.00,VWS V14.01,2013-04-29 06:00:00,
2013-04-29 01:04:00,63.2,52.9,29.50,South,178,20.0,22.0,69,0.00,,---,0.00,0.00,VWS V14.01,2013-04-29 06:04:00,
2013-04-29 01:05:00,63.2,52.9,29.50,South,191,21.0,22.0,69,0.00,,---,0.00,0.00,VWS V14.01,2013-04-29 06:05:00,
2013-04-29 01:09:00,63.2,52.9,29.50,South,188,22.0,25.0,69,0.00,,---,0.00,0.00,VWS V14.01,2013-04-29 06:09:00,
2013-04-29 01:10:00,63.4,52.7,29.50,SSW,198,17.0,25.0,68,0.00,,---,0.00,0.00,VWS V14.01,2013-04-29 06:10:00,
2013-04-29 01:14:00,63.2,52.5,29.50,South,191,17.0,22.0,68,0.00,,---,0.00,0.00,VWS V14.01,2013-04-29 06:14:00,
2013-04-29 01:15:00,63.2,52.5,29.50,South,186,19.0,25.0,68,0.00,,---,0.00,0.00,VWS V14.01,2013-04-29 06:15:00,
2013-04-29 01:19:00,63.2,52.5,29.50,South,189,18.0,26.0,68,0.00,,---,0.00,0.00,VWS V14.01,2013-04-29 06:19:00,
2013-04-29 01:20:00,63.2,52.5,29.50,South,189,13.0,26.0,68,0.00,,---,0.00,0.00,VWS V14.01,2013-04-29 06:20:00,
2013-04-29 01:24:00,63.2,52.5,29.50,South,189,22.0,25.0,68,0.00,,---,0.00,0.00,VWS V14.01,2013-04-29 06:24:00,
2013-04-29 01:25:00,63.2,52.5,29.50,South,191,16.0,25.0,68,0.00,,---,0.00,0.00,VWS V14.01,2013-04-29 06:25:00,
2013-04-29 01:29:00,63.2,52.5,29.50,SW,215,21.0,24.0,68,0.00,,---,0.00,0.00,VWS V14.01,2013-04-29 06:29:00,
2013-04-29 01:30:00,63.2,52.5,29.50,SSW,193,19.0,24.0,68,0.00,,---,0.00,0.00,VWS V14.01,2013-04-29 06:30:00,
2013-04-29 01:34:00,63.2,52.1,29.50,SSW,193,17.0,25.0,67,0.00,,---,0.00,0.00,VWS V14.01,2013-04-29 06:34:00,
2013-04-29 01:35:00,63.4,52.3,29.50,WNW,282,15.0,25.0,67,0.00,,---,0.00,0.00,VWS V14.01,2013-04-29 06:35:00,
2013-04-29 01:39:00,63.4,52.3,29.50,WNW,301,18.0,24.0,67,0.00,,---,0.00,0.00,VWS V14.01,2013-04-29 06:39:00,
2013-04-29 01:40:00,63.4,52.3,29.50,SW,216,19.0,26.0,67,0.00,,---,0.00,0.00,VWS V14.01,2013-04-29 06:40:00,
2013-04-29 01:44:00,63.4,52.3,29.50,SW,217,21.0,27.0,67,0.00,,---,0.00,0.00,VWS V14.01,2013-04-29 06:44:00,
2013-04-29 01:45:00,63.5,52.4,29.50,WNW,287,16.0,27.0,67,0.00,,---,0.00,0.00,VWS V14.01,2013-04-29 06:45:00,
2013-04-29 01:49:00,63.4,52.3,29.50,South,185,16.0,25.0,67,0.00,,---,0.00,0.00,VWS V14.01,2013-04-29 06:49:00,
2013-04-29 01:50:00,63.4,52.3,29.50,South,189,20.0,25.0,67,0.00,,---,0.00,0.00,VWS V14.01,2013-04-29 06:50:00,
2013-04-29 01:54:00,63.2,52.1,29.50,SSW,193,22.0,24.0,67,0.00,,---,0.00,0.00,VWS V14.01,2013-04-29 06:54:00,
2013-04-29 01:55:00,63.2,52.1,29.50,SW,217,22.0,24.0,67,0.00,,---,0.00,0.00,VWS V14.01,2013-04-29 06:55:00,
2013-04-29 01:59:00,63.2,52.1,29.50,SW,226,22.0,26.0,67,0.00,,---,0.00,0.00,VWS V14.01,2013-04-29 06:59:00,
2013-04-29 02:00:00,63.2,52.1,29.50,SSW,203,22.0,26.0,67,0.00,,---,0.00,0.00,VWS V14.01,2013-04-29 07:00:00,
2013-04-29 02:04:00,63.2,52.1,29.50,SW,216,18.0,28.0,67,0.00,,---,0.00,0.00,VWS V14.01,2013-04-29 07:04:00,
2013-04-29 02:05:00,63.1,52.0,29.50,SW,216,17.0,28.0,67,0.00,,---,0.00,0.00,VWS V14.01,2013-04-29 07:05:00,
2013-04-29 02:09:00,63.1,52.0,29.50,SSW,209,24.0,25.0,67,0.00,,---,0.00,0.00,VWS V14.01,2013-04-29 07:09:00,
2013-04-29 02:10:00,62.9,51.8,29.50,SW,220,18.0,25.0,67,0.00,,---,0.00,0.00,VWS V14.01,2013-04-29 07:10:00,
2013-04-29 02:15:00,62.9,51.8,29.49,SW,226,26.0,26.0,67,0.00,,---,0.00,0.00,VWS V14.01,2013-04-29 07:15:00,
2013-04-29 02:20:00,62.7,51.6,29.49,West,277,16.0,25.0,67,0.00,,---,0.00,0.00,VWS V14.01,2013-04-29 07:20:00,
2013-04-29 02:25:00,62.6,51.5,29.49,South,185,19.0,26.0,67,0.00,,---,0.00,0.00,VWS V14.01,2013-04-29 07:25:00,
2013-04-29 02:30:00,62.4,51.7,29.49,South,171,19.0,21.0,68,0.00,,---,0.00,0.00,VWS V14.01,2013-04-29 07:30:00,
2013-04-29 02:35:00,62.3,51.6,29.49,SW,220,16.0,26.0,68,0.00,,---,0.00,0.00,VWS V14.01,2013-04-29 07:35:00,
2013-04-29 02:40:00,62.0,51.7,29.49,SW,222,13.0,22.0,69,0.00,,---,0.00,0.00,VWS V14.01,2013-04-29 07:40:00,
2013-04-29 02:45:00,61.3,51.5,29.50,WSW,250,10.0,14.0,70,0.00,,---,0.00,0.00,VWS V14.01,2013-04-29 07:45:00,
2013-04-29 02:50:00,60.9,51.8,29.50,West,277,11.0,13.0,72,0.00,,---,0.00,0.00,VWS V14.01,2013-04-29 07:50:00,
2013-04-29 02:55:00,60.5,51.8,29.50,North,353,12.0,14.0,73,0.00,,---,0.00,0.00,VWS V14.01,2013-04-29 07:55:00,
2013-04-29 03:00:00,60.1,51.8,29.50,West,261,9.0,16.0,74,0.00,,---,0.00,0.00,VWS V14.01,2013-04-29 08:00:00,
2013-04-29 03:05:00,59.8,51.9,29.50,West,270,11.0,13.0,75,0.00,,---,0.00,0.00,VWS V14.01,2013-04-29 08:05:00,
2013-04-29 03:10:00,59.6,51.7,29.50,West,277,10.0,15.0,75,0.00,,---,0.00,0.00,VWS V14.01,2013-04-29 08:10:00,
2013-04-29 03:15:00,59.2,51.7,29.51,WNW,295,11.0,14.0,76,0.00,,---,0.00,0.00,VWS V14.01,2013-04-29 08:15:00,
2013-04-29 03:20:00,58.7,51.5,29.51,North,0,11.0,12.0,77,0.00,,---,0.00,0.00,VWS V14.01,2013-04-29 08:20:00,
2013-04-29 03:25:00,58.4,51.6,29.51,West,280,9.0,12.0,78,0.00,,---,0.00,0.00,VWS V14.01,2013-04-29 08:25:00,
2013-04-29 03:30:00,58.3,51.8,29.51,NNW,329,11.0,12.0,79,0.00,,---,0.00,0.00,VWS V14.01,2013-04-29 08:30:00,
2013-04-29 03:31:00,58.3,51.8,29.51,West,267,8.0,11.0,79,0.00,,---,0.00,0.00,VWS V14.01,2013-04-29 08:31:00,
2013-04-29 03:35:00,58.6,51.8,29.51,West,274,7.0,12.0,78,0.00,,---,0.00,0.00,VWS V14.01,2013-04-29 08:35:00,
2013-04-29 03:36:00,58.6,51.8,29.51,NW,320,7.0,8.0,78,0.00,,---,0.00,0.00,VWS V14.01,2013-04-29 08:36:00,
2013-04-29 03:40:00,58.4,51.9,29.51,North,350,6.0,9.0,79,0.00,,---,0.00,0.00,VWS V14.01,2013-04-29 08:40:00,
2013-04-29 03:41:00,58.4,51.9,29.51,North,349,5.0,6.0,79,0.00,,---,0.00,0.00,VWS V14.01,2013-04-29 08:41:00,
2013-04-29 03:45:00,58.3,51.8,29.51,NW,305,5.0,8.0,79,0.00,,---,0.00,0.00,VWS V14.01,2013-04-29 08:45:00,
2013-04-29 03:46:00,58.1,51.6,29.51,North,354,5.0,6.0,79,0.00,,---,0.00,0.00,VWS V14.01,2013-04-29 08:46:00,
2013-04-29 03:50:00,58.0,51.5,29.51,WSW,253,7.0,10.0,79,0.00,,---,0.00,0.00,VWS V14.01,2013-04-29 08:50:00,
2013-04-29 03:51:00,58.0,51.5,29.51,NW,312,7.0,8.0,79,0.00,,---,0.00,0.00,VWS V14.01,2013-04-29 08:51:00,
2013-04-29 03:55:00,58.0,51.9,29.51,NW,326,8.0,10.0,80,0.00,,---,0.00,0.00,VWS V14.01,2013-04-29 08:55:00,
2013-04-29 03:56:00,58.0,51.9,29.51,WSW,240,8.0,9.0,80,0.00,,---,0.00,0.00,VWS V14.01,2013-04-29 08:56:00,
2013-04-29 04:00:00,58.1,51.6,29.51,WNW,295,4.0,9.0,79,0.00,,---,0.00,0.00,VWS V14.01,2013-04-29 09:00:00,
2013-04-29 04:01:00,58.1,51.6,29.51,WSW,247,3.0,6.0,79,0.00,,---,0.00,0.00,VWS V14.01,2013-04-29 09:01:00,
2013-04-29 04:05:00,58.0,51.5,29.51,WSW,239,2.0,6.0,79,0.00,,---,0.00,0.00,VWS V14.01,2013-04-29 09:05:00,
2013-04-29 04:06:00,58.0,51.5,29.51,WSW,239,2.0,2.0,79,0.00,,---,0.00,0.00,VWS V14.01,2013-04-29 09:06:00,
2013-04-29 04:10:00,57.6,51.1,29.51,West,264,5.0,5.0,79,0.00,,---,0.00,0.00,VWS V14.01,2013-04-29 09:10:00,
2013-04-29 04:11:00,57.6,51.1,29.51,WSW,250,3.0,5.0,79,0.00,,---,0.00,0.00,VWS V14.01,2013-04-29 09:11:00,
2013-04-29 04:15:00,57.5,51.0,29.52,WSW,239,6.0,6.0,79,0.00,,---,0.00,0.00,VWS V14.01,2013-04-29 09:15:00,
2013-04-29 04:16:00,57.5,51.0,29.52,North,352,3.0,6.0,79,0.00,,---,0.00,0.00,VWS V14.01,2013-04-29 09:16:00,
2013-04-29 04:20:00,57.2,51.1,29.52,WNW,294,6.0,7.0,80,0.00,,---,0.00,0.00,VWS V14.01,2013-04-29 09:20:00,
2013-04-29 04:21:00,57.2,51.1,29.52,SW,230,6.0,7.0,80,0.00,,---,0.00,0.00,VWS V14.01,2013-04-29 09:21:00,
2013-04-29 04:25:00,56.6,50.5,29.52,West,280,6.0,7.0,80,0.00,,---,0.00,0.00,VWS V14.01,2013-04-29 09:25:00,
2013-04-29 04:26:00,56.6,50.5,29.52,SW,220,6.0,7.0,80,0.00,,---,0.00,0.00,VWS V14.01,2013-04-29 09:26:00,
2013-04-29 04:30:00,56.5,50.8,29.52,North,352,4.0,7.0,81,0.00,,---,0.00,0.00,VWS V14.01,2013-04-29 09:30:00,
2013-04-29 04:31:00,56.5,50.8,29.52,WSW,254,4.0,5.0,81,0.00,,---,0.00,0.00,VWS V14.01,2013-04-29 09:31:00,
2013-04-29 04:35:00,56.3,50.5,29.52,North,0,6.0,6.0,81,0.00,,---,0.00,0.00,VWS V14.01,2013-04-29 09:35:00,
2013-04-29 04:36:00,56.3,50.5,29.52,NNW,347,6.0,6.0,81,0.00,,---,0.00,0.00,VWS V14.01,2013-04-29 09:36:00,
2013-04-29 04:40:00,55.9,50.5,29.52,SW,227,6.0,6.0,82,0.00,,---,0.00,0.00,VWS V14.01,2013-04-29 09:40:00,
2013-04-29 04:41:00,55.9,50.5,29.52,North,0,5.0,6.0,82,0.00,,---,0.00,0.00,VWS V14.01,2013-04-29 09:41:00,
2013-04-29 04:45:00,55.7,50.6,29.52,SW,223,6.0,7.0,83,0.00,,---,0.00,0.00,VWS V14.01,2013-04-29 09:45:00,
2013-04-29 04:46:00,55.7,50.6,29.52,NNW,344,7.0,7.0,83,0.00,,---,0.00,0.00,VWS V14.01,2013-04-29 09:46:00,
2013-04-29 04:50:00,55.1,49.7,29.52,North,350,9.0,10.0,82,0.00,,---,0.00,0.00,VWS V14.01,2013-04-29 09:50:00,
2013-04-29 04:52:00,55.0,49.9,29.52,NNW,342,8.0,10.0,83,0.00,,---,0.00,0.00,VWS V14.01,2013-04-29 09:52:00,
2013-04-29 04:55:00,54.7,50.0,29.52,NW,305,9.0,11.0,84,0.00,,---,0.00,0.00,VWS V14.01,2013-04-29 09:55:00,
2013-04-29 04:57:00,54.7,50.3,29.52,SW,230,11.0,11.0,85,0.00,,---,0.00,0.00,VWS V14.01,2013-04-29 09:57:00,
2013-04-29 05:00:00,54.8,50.7,29.52,SW,222,10.0,11.0,86,0.00,,---,0.00,0.00,VWS V14.01,2013-04-29 10:00:00,
2013-04-29 05:02:00,54.8,50.7,29.52,SW,216,8.0,10.0,86,0.00,,---,0.00,0.00,VWS V14.01,2013-04-29 10:02:00,
2013-04-29 05:05:00,54.8,50.7,29.52,SSW,209,10.0,11.0,86,0.00,,---,0.00,0.00,VWS V14.01,2013-04-29 10:05:00,
2013-04-29 05:07:00,54.8,50.4,29.52,West,275,10.0,11.0,85,0.00,,---,0.00,0.00,VWS V14.01,2013-04-29 10:07:00,
2013-04-29 05:10:00,55.1,50.7,29.52,North,0,8.0,11.0,85,0.00,,---,0.00,0.00,VWS V14.01,2013-04-29 10:10:00,
2013-04-29 05:12:00,55.1,50.7,29.52,North,349,8.0,10.0,85,0.00,,---,0.00,0.00,VWS V14.01,2013-04-29 10:12:00,
2013-04-29 05:15:00,55.1,50.7,29.52,SW,222,8.0,11.0,85,0.00,,---,0.00,0.00,VWS V14.01,2013-04-29 10:15:00,
2013-04-29 05:17:00,55.3,50.9,29.52,SW,220,8.0,9.0,85,0.00,,---,0.00,0.00,VWS V14.01,2013-04-29 10:17:00,
2013-04-29 05:20:00,55.6,51.2,29.52,SW,224,6.0,10.0,85,0.00,,---,0.00,0.00,VWS V14.01,2013-04-29 10:20:00,
2013-04-29 05:22:00,55.7,51.3,29.52,SW,226,6.0,7.0,85,0.00,,---,0.00,0.00,VWS V14.01,2013-04-29 10:22:00,
2013-04-29 05:25:00,55.7,51.0,29.52,SW,226,7.0,7.0,84,0.00,,---,0.00,0.00,VWS V14.01,2013-04-29 10:25:00,
2013-04-29 05:27:00,55.9,51.1,29.52,SW,222,8.0,8.0,84,0.00,,---,0.00,0.00,VWS V14.01,2013-04-29 10:27:00,
2013-04-29 05:30:00,55.7,50.6,29.52,SW,223,8.0,10.0,83,0.00,,---,0.00,0.00,VWS V14.01,2013-04-29 10:30:00,
2013-04-29 05:32:00,55.6,50.5,29.52,SW,220,7.0,10.0,83,0.00,,---,0.00,0.00,VWS V14.01,2013-04-29 10:32:00,
2013-04-29 05:35:00,55.6,50.8,29.52,SW,226,8.0,10.0,84,0.00,,---,0.00,0.00,VWS V14.01,2013-04-29 10:35:00,
2013-04-29 05:37:00,56.0,51.2,29.52,SW,226,6.0,10.0,84,0.00,,---,0.00,0.00,VWS V14.01,2013-04-29 10:37:00,
2013-04-29 05:40:00,56.5,51.4,29.52,SW,223,9.0,11.0,83,0.00,,---,0.00,0.00,VWS V14.01,2013-04-29 10:40:00,
2013-04-29 05:42:00,56.6,51.5,29.52,SW,230,7.0,12.0,83,0.00,,---,0.00,0.00,VWS V14.01,2013-04-29 10:42:00,
2013-04-29 05:45:00,56.9,51.5,29.52,SW,223,11.0,12.0,82,0.00,,---,0.00,0.00,VWS V14.01,2013-04-29 10:45:00,
2013-04-29 05:47:00,57.0,51.6,29.52,SW,227,10.0,11.0,82,0.00,,---,0.00,0.00,VWS V14.01,2013-04-29 10:47:00,
2013-04-29 05:50:00,56.9,51.1,29.52,SW,223,8.0,12.0,81,0.00,,---,0.00,0.00,VWS V14.01,2013-04-29 10:50:00,
2013-04-29 05:52:00,57.0,51.2,29.52,SW,220,10.0,12.0,81,0.00,,---,0.00,0.00,VWS V14.01,2013-04-29 10:52:00,
2013-04-29 05:55:00,57.0,51.2,29.52,SW,217,10.0,12.0,81,0.00,,---,0.00,0.00,VWS V14.01,2013-04-29 10:55:00,
2013-04-29 05:58:00,57.2,51.4,29.52,SW,217,9.0,11.0,81,0.00,,---,0.00,0.00,VWS V14.01,2013-04-29 10:58:00,
2013-04-29 06:00:00,57.2,51.1,29.52,WSW,254,12.0,12.0,80,0.00,,---,0.00,0.00,VWS V14.01,2013-04-29 11:00:00,
2013-04-29 06:03:00,57.0,50.6,29.52,SSW,213,9.0,12.0,79,0.00,,---,0.00,0.00,VWS V14.01,2013-04-29 11:03:00,
2013-04-29 06:05:00,56.6,50.2,29.52,SSW,202,10.0,12.0,79,0.00,,---,0.00,0.00,VWS V14.01,2013-04-29 11:05:00,
2013-04-29 06:08:00,56.5,50.1,29.52,South,191,8.0,10.0,79,0.00,,---,0.00,0.00,VWS V14.01,2013-04-29 11:08:00,
2013-04-29 06:10:00,55.7,49.6,29.52,SSW,212,7.0,10.0,80,0.00,,---,0.00,0.00,VWS V14.01,2013-04-29 11:10:00,
2013-04-29 06:13:00,55.4,49.7,29.52,South,185,7.0,11.0,81,0.00,,---,0.00,0.00,VWS V14.01,2013-04-29 11:13:00,
2013-04-29 06:15:00,55.1,49.7,29.53,NW,304,8.0,11.0,82,0.00,,---,0.00,0.00,VWS V14.01,2013-04-29 11:15:00,
2013-04-29 06:18:00,55.0,49.6,29.53,South,181,7.0,8.0,82,0.00,,---,0.00,0.00,VWS V14.01,2013-04-29 11:18:00,
2013-04-29 06:20:00,54.8,49.4,29.53,South,182,6.0,10.0,82,0.00,,---,0.00,0.00,VWS V14.01,2013-04-29 11:20:00,
2013-04-29 06:23:00,54.7,49.7,29.53,South,172,7.0,8.0,83,0.00,,---,0.00,0.00,VWS V14.01,2013-04-29 11:23:00,
2013-04-29 06:25:00,54.5,49.5,29.53,SSW,205,7.0,9.0,83,0.00,,---,0.00,0.00,VWS V14.01,2013-04-29 11:25:00,
2013-04-29 06:28:00,54.2,49.2,29.53,SSW,196,7.0,8.0,83,0.00,,---,0.00,0.00,VWS V14.01,2013-04-29 11:28:00,
2013-04-29 06:30:00,54.1,49.4,29.53,South,176,7.0,8.0,84,0.00,,---,0.00,0.00,VWS V14.01,2013-04-29 11:30:00,
2013-04-29 06:33:00,54.1,49.4,29.53,South,176,6.0,9.0,84,0.00,,---,0.00,0.00,VWS V14.01,2013-04-29 11:33:00,
2013-04-29 06:35:00,53.9,49.5,29.53,SSE,167,7.0,9.0,85,0.00,,---,0.00,0.00,VWS V14.01,2013-04-29 11:35:00,
2013-04-29 06:38:00,53.9,49.5,29.53,South,189,7.0,10.0,85,0.00,,---,0.00,0.00,VWS V14.01,2013-04-29 11:38:00,
2013-04-29 06:40:00,54.1,50.0,29.53,South,169,7.0,10.0,86,0.00,,---,0.00,0.00,VWS V14.01,2013-04-29 11:40:00,
2013-04-29 06:43:00,54.2,50.1,29.53,South,169,4.0,8.0,86,0.00,,---,0.00,12.00,VWS V14.01,2013-04-29 11:43:00,
2013-04-29 06:45:00,54.2,50.1,29.53,WNW,282,3.0,8.0,86,0.00,,---,0.00,12.00,VWS V14.01,2013-04-29 11:45:00,
2013-04-29 06:48:00,54.2,50.1,29.53,SSE,168,7.0,7.0,86,0.00,,---,0.00,18.00,VWS V14.01,2013-04-29 11:48:00,
2013-04-29 06:50:00,54.2,50.1,29.53,North,353,4.0,8.0,86,0.00,,---,0.00,18.00,VWS V14.01,2013-04-29 11:50:00,
2013-04-29 06:53:00,54.1,50.0,29.53,SSE,167,7.0,8.0,86,0.00,,---,0.00,25.00,VWS V14.01,2013-04-29 11:53:00,
2013-04-29 06:55:00,54.1,50.0,29.53,South,175,6.0,8.0,86,0.00,,---,0.00,30.00,VWS V14.01,2013-04-29 11:55:00,
2013-04-29 06:58:00,54.2,50.1,29.53,South,179,6.0,8.0,86,0.00,,---,0.00,30.00,VWS V14.01,2013-04-29 11:58:00,
2013-04-29 07:00:00,54.2,50.1,29.54,SSE,168,7.0,8.0,86,0.00,,---,0.00,37.00,VWS V14.01,2013-04-29 12:00:00,
2013-04-29 07:03:00,54.4,50.6,29.54,South,191,7.0,8.0,87,0.00,,---,0.00,37.00,VWS V14.01,2013-04-29 12:03:00,
2013-04-29 07:05:00,54.4,50.6,29.54,SSE,165,6.0,8.0,87,0.00,,---,0.00,46.00,VWS V14.01,2013-04-29 12:05:00,
2013-04-29 07:09:00,54.4,50.3,29.54,South,182,6.0,7.0,86,0.00,,---,0.00,40.00,VWS V14.01,2013-04-29 12:09:00,
2013-04-29 07:10:00,54.5,50.4,29.54,South,174,5.0,7.0,86,0.00,,---,0.00,40.00,VWS V14.01,2013-04-29 12:10:00,
2013-04-29 07:14:00,54.5,50.4,29.54,South,178,5.0,8.0,86,0.00,,---,0.00,49.00,VWS V14.01,2013-04-29 12:14:00,
2013-04-29 07:15:00,54.5,50.4,29.55,South,171,6.0,8.0,86,0.00,,---,0.00,49.00,VWS V14.01,2013-04-29 12:15:00,
2013-04-29 07:19:00,54.7,50.6,29.55,NNW,333,4.0,6.0,86,0.00,,---,0.00,70.00,VWS V14.01,2013-04-29 12:19:00,
2013-04-29 07:20:00,54.7,50.6,29.55,SSE,164,2.0,6.0,86,0.00,,---,0.00,76.00,VWS V14.01,2013-04-29 12:20:00,
2013-04-29 07:24:00,54.8,50.7,29.55,SSE,162,3.0,6.0,86,0.00,,---,0.00,83.00,VWS V14.01,2013-04-29 12:24:00,
2013-04-29 07:25:00,54.8,50.7,29.55,South,172,4.0,6.0,86,0.00,,---,0.00,88.00,VWS V14.01,2013-04-29 12:25:00,
2013-04-29 07:29:00,55.0,50.9,29.55,SSE,152,3.0,6.0,86,0.00,,---,0.00,97.00,VWS V14.01,2013-04-29 12:29:00,
2013-04-29 07:30:00,55.0,50.9,29.55,South,172,5.0,6.0,86,0.00,,---,0.00,100.00,VWS V14.01,2013-04-29 12:30:00,
2013-04-29 07:34:00,55.1,51.0,29.55,SSE,155,4.0,6.0,86,0.00,,---,0.00,109.00,VWS V14.01,2013-04-29 12:34:00,
2013-04-29 07:35:00,55.3,51.2,29.55,South,189,4.0,6.0,86,0.00,,---,0.00,114.00,VWS V14.01,2013-04-29 12:35:00,
2013-04-29 07:39:00,55.4,51.3,29.55,South,176,6.0,7.0,86,0.00,,---,0.00,123.00,VWS V14.01,2013-04-29 12:39:00,
2013-04-29 07:40:00,55.4,51.6,29.55,SW,223,2.0,8.0,87,0.00,,---,0.00,144.00,VWS V14.01,2013-04-29 12:40:00,
2013-04-29 07:44:00,55.7,51.9,29.55,South,172,7.0,7.0,87,0.00,,---,0.00,155.00,VWS V14.01,2013-04-29 12:44:00,
2013-04-29 07:45:00,55.9,52.1,29.54,NW,311,5.0,7.0,87,0.00,,---,0.00,158.00,VWS V14.01,2013-04-29 12:45:00,
2013-04-29 07:49:00,56.2,52.4,29.54,South,182,6.0,7.0,87,0.00,,---,0.00,167.00,VWS V14.01,2013-04-29 12:49:00,
2013-04-29 07:50:00,56.3,52.5,29.54,SSE,165,5.0,7.0,87,0.00,,---,0.00,176.00,VWS V14.01,2013-04-29 12:50:00,
2013-04-29 07:54:00,56.6,52.5,29.54,WSW,251,6.0,8.0,86,0.00,,---,0.00,185.00,VWS V14.01,2013-04-29 12:54:00,
2013-04-29 07:55:00,56.6,52.5,29.54,NNW,346,3.0,8.0,86,0.00,,---,0.00,190.00,VWS V14.01,2013-04-29 12:55:00,
2013-04-29 07:59:00,57.0,52.9,29.54,SSE,168,3.0,10.0,86,0.00,,---,0.00,199.00,VWS V14.01,2013-04-29 12:59:00,
2013-04-29 08:00:00,57.0,52.9,29.54,SSE,165,6.0,10.0,86,0.00,,---,0.00,201.00,VWS V14.01,2013-04-29 13:00:00,
2013-04-29 08:04:00,57.5,53.3,29.54,SSE,162,6.0,10.0,86,0.00,,---,0.00,218.00,VWS V14.01,2013-04-29 13:04:00,
2013-04-29 08:05:00,57.6,53.5,29.54,WNW,285,5.0,10.0,86,0.00,,---,0.00,220.00,VWS V14.01,2013-04-29 13:05:00,
2013-04-29 08:09:00,58.1,53.6,29.54,NNW,340,7.0,10.0,85,0.00,,---,0.00,222.00,VWS V14.01,2013-04-29 13:09:00,
2013-04-29 08:10:00,58.1,53.6,29.54,SW,230,5.0,10.0,85,0.00,,---,0.00,223.00,VWS V14.01,2013-04-29 13:10:00,
2013-04-29 08:15:00,58.7,53.9,29.54,SSW,192,7.0,8.0,84,0.00,,---,0.00,238.00,VWS V14.01,2013-04-29 13:15:00,
2013-04-29 08:20:00,59.3,54.2,29.54,SW,222,6.0,9.0,83,0.00,,---,0.00,255.00,VWS V14.01,2013-04-29 13:20:00,
2013-04-29 08:25:00,59.9,54.4,29.54,NW,305,7.0,11.0,82,0.00,,---,0.00,271.00,VWS V14.01,2013-04-29 13:25:00,
2013-04-29 08:30:00,60.5,54.7,29.54,North,0,7.0,12.0,81,0.00,,---,0.00,283.00,VWS V14.01,2013-04-29 13:30:00,
2013-04-29 08:35:00,61.2,55.0,29.54,North,0,8.0,12.0,80,0.00,,---,0.00,303.00,VWS V14.01,2013-04-29 13:35:00,
2013-04-29 08:40:00,61.8,55.2,29.54,NNW,328,5.0,10.0,79,0.00,,---,0.00,333.00,VWS V14.01,2013-04-29 13:40:00,
2013-04-29 08:45:00,62.6,55.7,29.53,NNW,342,5.0,9.0,78,0.00,,---,0.00,354.00,VWS V14.01,2013-04-29 13:45:00,
2013-04-29 08:50:00,63.4,56.1,29.53,South,185,6.0,8.0,77,0.00,,---,0.00,370.00,VWS V14.01,2013-04-29 13:50:00,
2013-04-29 08:55:00,64.0,55.9,29.53,SSW,209,10.0,11.0,75,0.00,,---,0.00,385.00,VWS V14.01,2013-04-29 13:55:00,
2013-04-29 09:00:00,64.7,56.6,29.52,NNW,339,10.0,12.0,75,0.00,,---,0.00,410.00,VWS V14.01,2013-04-29 14:00:00,
2013-04-29 09:05:00,65.2,56.7,29.52,WNW,289,6.0,13.0,74,0.00,,---,0.00,415.00,VWS V14.01,2013-04-29 14:05:00,
2013-04-29 09:10:00,65.6,56.3,29.52,North,350,8.0,13.0,72,0.00,,---,0.00,405.00,VWS V14.01,2013-04-29 14:10:00,
2013-04-29 09:15:00,66.1,57.2,29.52,SSW,195,10.0,16.0,73,0.00,,---,0.00,311.00,VWS V14.01,2013-04-29 14:15:00,
2013-04-29 09:20:00,66.9,57.6,29.52,WSW,256,12.0,16.0,72,0.00,,---,0.00,436.00,VWS V14.01,2013-04-29 14:20:00,
2013-04-29 09:25:00,67.6,57.9,29.52,SSW,205,17.0,17.0,71,0.00,,---,0.00,412.00,VWS V14.01,2013-04-29 14:25:00,
2013-04-29 09:30:00,67.8,58.1,29.51,SW,233,10.0,20.0,71,0.00,,---,0.00,410.00,VWS V14.01,2013-04-29 14:30:00,
2013-04-29 09:31:00,67.8,58.1,29.51,SW,222,13.0,13.0,71,0.00,,---,0.00,410.00,VWS V14.01,2013-04-29 14:31:00,
2013-04-29 09:35:00,68.3,58.2,29.51,WSW,239,18.0,18.0,70,0.00,,---,0.00,283.00,VWS V14.01,2013-04-29 14:35:00,
2013-04-29 09:36:00,68.3,58.2,29.51,NW,315,16.0,18.0,70,0.00,,---,0.00,283.00,VWS V14.01,2013-04-29 14:36:00,
2013-04-29 09:40:00,68.8,58.6,29.51,WNW,287,15.0,19.0,70,0.00,,---,0.00,301.00,VWS V14.01,2013-04-29 14:40:00,
2013-04-29 09:41:00,68.8,58.6,29.51,SSW,208,12.0,15.0,70,0.00,,---,0.00,301.00,VWS V14.01,2013-04-29 14:41:00,
2013-04-29 09:45:00,69.3,58.7,29.50,SW,232,14.0,20.0,69,0.00,,---,0.00,454.00,VWS V14.01,2013-04-29 14:45:00,
2013-04-29 09:46:00,69.3,58.7,29.50,SSW,202,11.0,14.0,69,0.00,,---,0.00,454.00,VWS V14.01,2013-04-29 14:46:00,
2013-04-29 09:50:00,69.6,58.6,29.50,SW,229,12.0,19.0,68,0.00,,---,0.00,477.00,VWS V14.01,2013-04-29 14:50:00,
2013-04-29 09:51:00,69.6,57.8,29.50,West,268,13.0,13.0,66,0.00,,---,0.00,477.00,VWS V14.01,2013-04-29 14:51:00,
2013-04-29 09:55:00,69.9,58.0,29.50,SW,226,12.0,20.0,66,0.00,,---,0.00,547.00,VWS V14.01,2013-04-29 14:55:00,
2013-04-29 09:56:00,70.1,58.7,29.50,SSW,208,11.0,14.0,67,0.00,,---,0.00,547.00,VWS V14.01,2013-04-29 14:56:00,
2013-04-29 10:00:00,70.4,58.1,29.50,SSW,209,14.0,20.0,65,0.00,,---,0.00,500.00,VWS V14.01,2013-04-29 15:00:00,
2013-04-29 10:01:00,70.4,57.7,29.50,SW,224,14.0,20.0,64,0.00,,---,0.00,500.00,VWS V14.01,2013-04-29 15:01:00,
2013-04-29 10:05:00,70.4,58.1,29.50,SW,219,9.0,20.0,65,0.00,,---,0.00,574.00,VWS V14.01,2013-04-29 15:05:00,
2013-04-29 10:06:00,70.4,57.7,29.50,SW,215,14.0,17.0,64,0.00,,---,0.00,574.00,VWS V14.01,2013-04-29 15:06:00,
2013-04-29 10:10:00,70.8,58.0,29.50,SSW,205,12.0,20.0,64,0.00,,---,0.00,565.00,VWS V14.01,2013-04-29 15:10:00,
2013-04-29 10:11:00,70.8,58.0,29.50,SSW,192,18.0,19.0,64,0.00,,---,0.00,565.00,VWS V14.01,2013-04-29 15:11:00,
2013-04-29 10:15:00,71.1,57.9,29.51,WSW,237,10.0,19.0,63,0.00,,---,0.00,619.00,VWS V14.01,2013-04-29 15:15:00,
2013-04-29 10:16:00,71.1,57.9,29.51,SW,229,7.0,11.0,63,0.00,,---,0.00,621.00,VWS V14.01,2013-04-29 15:16:00,
2013-04-29 10:20:00,71.6,57.5,29.51,WSW,237,11.0,16.0,61,0.00,,---,0.00,621.00,VWS V14.01,2013-04-29 15:20:00,
2013-04-29 10:21:00,71.6,57.0,29.51,SW,233,6.0,12.0,60,0.00,,---,0.00,633.00,VWS V14.01,2013-04-29 15:21:00,
2013-04-29 10:25:00,71.8,57.2,29.51,SW,223,14.0,16.0,60,0.00,,---,0.00,635.00,VWS V14.01,2013-04-29 15:25:00,
2013-04-29 10:26:00,71.8,57.2,29.51,SW,224,8.0,16.0,60,0.00,,---,0.00,614.00,VWS V14.01,2013-04-29 15:26:00,
2013-04-29 10:30:00,72.0,57.8,29.50,SW,227,7.0,18.0,61,0.00,,---,0.00,582.00,VWS V14.01,2013-04-29 15:30:00,
2013-04-29 10:32:00,72.1,57.9,29.50,WNW,292,11.0,14.0,61,0.00,,---,0.00,582.00,VWS V14.01,2013-04-29 15:32:00,
2013-04-29 10:35:00,72.3,57.7,29.50,WSW,248,16.0,17.0,60,0.00,,---,0.00,505.00,VWS V14.01,2013-04-29 15:35:00,
2013-04-29 10:37:00,72.3,57.7,29.50,WSW,256,11.0,16.0,60,0.00,,---,0.00,505.00,VWS V14.01,2013-04-29 15:37:00,
2013-04-29 10:40:00,72.5,57.8,29.50,SW,226,10.0,19.0,60,0.00,,---,0.00,187.00,VWS V14.01,2013-04-29 15:40:00,
2013-04-29 10:42:00,72.5,58.3,29.50,SW,234,8.0,17.0,61,0.00,,---,0.00,139.00,VWS V14.01,2013-04-29 15:42:00,
2013-04-29 10:45:00,72.7,58.0,29.50,SW,236,18.0,18.0,60,0.00,,---,0.00,130.00,VWS V14.01,2013-04-29 15:45:00,
2013-04-29 10:47:00,72.5,57.4,29.50,West,264,16.0,18.0,59,0.00,,---,0.00,130.00,VWS V14.01,2013-04-29 15:47:00,
2013-04-29 10:50:00,72.7,57.6,29.50,SW,216,13.0,19.0,59,0.00,,---,0.00,139.00,VWS V14.01,2013-04-29 15:50:00,
2013-04-29 10:52:00,73.0,57.8,29.50,SW,220,8.0,17.0,59,0.00,,---,0.00,121.00,VWS V14.01,2013-04-29 15:52:00,
2013-04-29 10:55:00,73.3,57.7,29.50,WSW,248,13.0,20.0,58,0.00,,---,0.00,121.00,VWS V14.01,2013-04-29 15:55:00,
2013-04-29 10:57:00,73.3,58.1,29.50,SW,216,12.0,18.0,59,0.00,,---,0.00,121.00,VWS V14.01,2013-04-29 15:57:00,
2013-04-29 11:00:00,73.3,57.7,29.49,WSW,239,12.0,18.0,58,0.00,,---,0.00,165.00,VWS V14.01,2013-04-29 16:00:00,
2013-04-29 11:02:00,73.3,56.7,29.49,WSW,250,17.0,17.0,56,0.00,,---,0.00,146.00,VWS V14.01,2013-04-29 16:02:00,
2013-04-29 11:05:00,73.7,56.0,29.49,SW,230,9.0,17.0,54,0.00,,---,0.00,204.00,VWS V14.01,2013-04-29 16:05:00,
2013-04-29 11:07:00,73.7,57.0,29.49,SW,222,13.0,13.0,56,0.00,,---,0.00,178.00,VWS V14.01,2013-04-29 16:07:00,
2013-04-29 11:10:00,74.0,56.3,29.49,West,280,14.0,16.0,54,0.00,,---,0.00,150.00,VWS V14.01,2013-04-29 16:10:00,
2013-04-29 11:12:00,73.9,55.7,29.49,West,265,7.0,15.0,53,0.00,,---,0.00,116.00,VWS V14.01,2013-04-29 16:12:00,
2013-04-29 11:15:00,74.2,56.0,29.50,West,272,10.0,15.0,53,0.00,,---,0.00,123.00,VWS V14.01,2013-04-29 16:15:00,
2013-04-29 11:17:00,74.4,56.2,29.50,SW,217,12.0,17.0,53,0.00,,---,0.00,123.00,VWS V14.01,2013-04-29 16:17:00,
2013-04-29 11:20:00,74.6,56.9,29.50,SW,223,12.0,20.0,54,0.00,,---,0.00,716.00,VWS V14.01,2013-04-29 16:20:00,
2013-04-29 11:22:00,74.7,57.0,29.50,WSW,239,11.0,13.0,54,0.00,,---,0.00,329.00,VWS V14.01,2013-04-29 16:22:00,
2013-04-29 11:25:00,74.7,56.5,29.50,NW,313,8.0,14.0,53,0.00,,---,0.00,329.00,VWS V14.01,2013-04-29 16:25:00,
2013-04-29 11:27:00,74.9,56.6,29.50,WSW,244,11.0,13.0,53,0.00,,---,0.00,329.00,VWS V14.01,2013-04-29 16:27:00,
2013-04-29 11:30:00,75.1,56.3,29.49,WSW,253,9.0,14.0,52,0.00,,---,0.00,329.00,VWS V14.01,2013-04-29 16:30:00,
2013-04-29 11:32:00,75.3,56.5,29.49,WSW,248,11.0,12.0,52,0.00,,---,0.00,751.00,VWS V14.01,2013-04-29 16:32:00,
2013-04-29 11:35:00,75.3,55.4,29.49,WNW,287,12.0,16.0,50,0.00,,---,0.00,794.00,VWS V14.01,2013-04-29 16:35:00,
2013-04-29 11:37:00,75.6,56.8,29.49,NNW,342,11.0,15.0,52,0.00,,---,0.00,808.00,VWS V14.01,2013-04-29 16:37:00,
2013-04-29 11:40:00,75.8,55.3,29.49,WSW,251,11.0,15.0,49,0.00,,---,0.00,813.00,VWS V14.01,2013-04-29 16:40:00,
2013-04-29 11:43:00,75.8,56.4,29.49,North,356,8.0,13.0,51,0.00,,---,0.00,816.00,VWS V14.01,2013-04-29 16:43:00,
2013-04-29 11:45:00,75.8,56.4,29.49,SW,223,10.0,15.0,51,0.00,,---,0.00,822.00,VWS V14.01,2013-04-29 16:45:00,
2013-04-29 11:48:00,76.0,56.0,29.49,WSW,248,12.0,17.0,50,0.00,,---,0.00,829.00,VWS V14.01,2013-04-29 16:48:00,
2013-04-29 11:50:00,75.8,56.9,29.49,WNW,298,14.0,17.0,52,0.00,,---,0.00,832.00,VWS V14.01,2013-04-29 16:50:00,
2013-04-29 11:53:00,75.8,56.4,29.49,West,263,6.0,14.0,51,0.00,,---,0.00,836.00,VWS V14.01,2013-04-29 16:53:00,
2013-04-29 11:55:00,75.6,56.2,29.49,SW,234,13.0,14.0,51,0.00,,---,0.00,841.00,VWS V14.01,2013-04-29 16:55:00,
2013-04-29 11:58:00,75.8,55.3,29.49,WSW,247,7.0,16.0,49,0.00,,---,0.00,783.00,VWS V14.01,2013-04-29 16:58:00,
2013-04-29 12:00:00,76.0,57.1,29.48,SW,219,7.0,16.0,52,0.00,,---,0.00,799.00,VWS V14.01,2013-04-29 17:00:00,
2013-04-29 12:03:00,76.3,55.8,29.48,SW,232,5.0,12.0,49,0.00,,---,0.00,853.00,VWS V14.01,2013-04-29 17:03:00,
2013-04-29 12:05:00,76.7,56.7,29.48,WSW,256,10.0,12.0,50,0.00,,---,0.00,853.00,VWS V14.01,2013-04-29 17:05:00,
2013-04-29 12:08:00,76.8,55.1,29.48,West,271,8.0,14.0,47,0.00,,---,0.00,860.00,VWS V14.01,2013-04-29 17:08:00,
2013-04-29 12:10:00,76.7,56.1,29.48,North,356,10.0,14.0,49,0.00,,---,0.00,864.00,VWS V14.01,2013-04-29 17:10:00,
2013-04-29 12:13:00,76.8,57.3,29.48,SW,236,6.0,14.0,51,0.00,,---,0.00,864.00,VWS V14.01,2013-04-29 17:13:00,
2013-04-29 12:15:00,77.0,57.5,29.48,WSW,247,11.0,14.0,51,0.00,,---,0.00,862.00,VWS V14.01,2013-04-29 17:15:00,
2013-04-29 12:18:00,76.7,57.8,29.48,SW,216,8.0,15.0,52,0.00,,---,0.00,867.00,VWS V14.01,2013-04-29 17:18:00,
2013-04-29 12:20:00,76.8,57.3,29.48,WSW,251,7.0,15.0,51,0.00,,---,0.00,871.00,VWS V14.01,2013-04-29 17:20:00,
2013-04-29 12:23:00,77.0,57.0,29.48,SSW,192,10.0,14.0,50,0.00,,---,0.00,744.00,VWS V14.01,2013-04-29 17:23:00,
2013-04-29 12:25:00,77.2,57.7,29.48,WSW,257,8.0,14.0,51,0.00,,---,0.00,880.00,VWS V14.01,2013-04-29 17:25:00,
2013-04-29 12:28:00,77.4,57.9,29.48,SW,236,6.0,12.0,51,0.00,,---,0.00,882.00,VWS V14.01,2013-04-29 17:28:00,
2013-04-29 12:30:00,77.6,57.0,29.47,SSW,209,6.0,12.0,49,0.00,,---,0.00,885.00,VWS V14.01,2013-04-29 17:30:00,
2013-04-29 12:33:00,77.9,57.8,29.47,North,354,6.0,10.0,50,0.00,,---,0.00,889.00,VWS V14.01,2013-04-29 17:33:00,
2013-04-29 12:35:00,78.1,56.8,29.47,WSW,248,11.0,14.0,48,0.00,,---,0.00,892.00,VWS V14.01,2013-04-29 17:35:00,
2013-04-29 12:38:00,78.3,58.2,29.47,WSW,243,9.0,12.0,50,0.00,,---,0.00,896.00,VWS V14.01,2013-04-29 17:38:00,
2013-04-29 12:40:00,77.9,57.2,29.47,WNW,299,7.0,13.0,49,0.00,,---,0.00,890.00,VWS V14.01,2013-04-29 17:40:00,
2013-04-29 12:44:00,77.9,58.3,29.47,SW,233,7.0,13.0,51,0.00,,---,0.00,876.00,VWS V14.01,2013-04-29 17:44:00,
2013-04-29 12:45:00,77.9,57.8,29.47,South,191,6.0,14.0,50,0.00,,---,0.00,855.00,VWS V14.01,2013-04-29 17:45:00,
2013-04-29 12:49:00,78.3,57.6,29.47,WSW,257,14.0,14.0,49,0.00,,---,0.00,894.00,VWS V14.01,2013-04-29 17:49:00,
2013-04-29 12:50:00,78.3,57.0,29.47,West,265,13.0,16.0,48,0.00,,---,0.00,896.00,VWS V14.01,2013-04-29 17:50:00,
2013-04-29 12:54:00,78.3,57.0,29.47,WSW,243,4.0,13.0,48,0.00,,---,0.00,894.00,VWS V14.01,2013-04-29 17:54:00,
2013-04-29 12:55:00,78.3,57.0,29.47,South,188,7.0,17.0,48,0.00,,---,0.00,889.00,VWS V14.01,2013-04-29 17:55:00,
2013-04-29 12:59:00,78.6,57.3,29.47,SW,230,17.0,17.0,48,0.00,,---,0.00,889.00,VWS V14.01,2013-04-29 17:59:00,
2013-04-29 13:00:00,78.6,56.1,29.46,South,184,4.0,18.0,46,0.00,,---,0.00,889.00,VWS V14.01,2013-04-29 18:00:00,
2013-04-29 13:04:00,79.2,57.2,29.46,WSW,251,15.0,17.0,47,0.00,,---,0.00,128.00,VWS V14.01,2013-04-29 18:04:00,
2013-04-29 13:05:00,79.6,57.0,29.46,NNW,335,12.0,17.0,46,0.00,,---,0.00,139.00,VWS V14.01,2013-04-29 18:05:00,
2013-04-29 13:09:00,79.9,57.3,29.46,WNW,285,5.0,13.0,46,0.00,,---,0.00,139.00,VWS V14.01,2013-04-29 18:09:00,
2013-04-29 13:10:00,80.1,56.2,29.46,WSW,246,6.0,13.0,44,0.00,,---,0.00,897.00,VWS V14.01,2013-04-29 18:10:00,
2013-04-29 13:14:00,80.1,55.6,29.46,WSW,251,8.0,13.0,43,0.00,,---,0.00,894.00,VWS V14.01,2013-04-29 18:14:00,
2013-04-29 13:15:00,80.1,56.9,29.46,West,272,9.0,13.0,45,0.00,,---,0.00,848.00,VWS V14.01,2013-04-29 18:15:00,
2013-04-29 13:19:00,80.1,55.6,29.46,West,264,8.0,11.0,43,0.00,,---,0.00,848.00,VWS V14.01,2013-04-29 18:19:00,
2013-04-29 13:20:00,80.3,55.8,29.46,NNW,336,13.0,14.0,43,0.00,,---,0.00,848.00,VWS V14.01,2013-04-29 18:20:00,
2013-04-29 13:24:00,80.7,56.8,29.46,NW,326,11.0,19.0,44,0.00,,---,0.00,120.00,VWS V14.01,2013-04-29 18:24:00,
2013-04-29 13:25:00,80.9,56.3,29.46,NNW,340,12.0,19.0,43,0.00,,---,0.00,118.00,VWS V14.01,2013-04-29 18:25:00,
2013-04-29 13:29:00,80.5,55.3,29.46,North,352,9.0,12.0,42,0.00,,---,0.00,123.00,VWS V14.01,2013-04-29 18:29:00,
2013-04-29 13:30:00,80.5,56.0,29.45,North,350,9.0,12.0,43,0.00,,---,0.00,143.00,VWS V14.01,2013-04-29 18:30:00,
2013-04-29 13:34:00,80.7,54.8,29.45,NNW,337,11.0,13.0,41,0.00,,---,0.00,143.00,VWS V14.01,2013-04-29 18:34:00,
2013-04-29 13:35:00,80.9,54.3,29.45,NNW,340,6.0,13.0,40,0.00,,---,0.00,883.00,VWS V14.01,2013-04-29 18:35:00,
2013-04-29 13:39:00,81.2,56.0,29.45,North,349,10.0,13.0,42,0.00,,---,0.00,882.00,VWS V14.01,2013-04-29 18:39:00,
2013-04-29 13:40:00,81.2,55.3,29.45,NNW,337,7.0,13.0,41,0.00,,---,0.00,892.00,VWS V14.01,2013-04-29 18:40:00,
2013-04-29 13:45:00,81.1,55.2,29.44,West,275,5.0,7.0,41,0.00,,---,0.00,878.00,VWS V14.01,2013-04-29 18:45:00,
2013-04-29 13:50:00,81.8,57.1,29.44,North,0,8.0,9.0,43,0.00,,---,0.00,809.00,VWS V14.01,2013-04-29 18:50:00,
2013-04-29 13:55:00,82.0,53.9,29.44,North,0,5.0,12.0,38,0.00,,---,0.00,208.00,VWS V14.01,2013-04-29 18:55:00,
2013-04-29 14:00:00,82.0,54.6,29.43,SSW,199,2.0,19.0,39,0.00,,---,0.00,225.00,VWS V14.01,2013-04-29 19:00:00,
2013-04-29 14:05:00,82.4,55.0,29.43,SSW,206,10.0,14.0,39,0.00,,---,0.00,753.00,VWS V14.01,2013-04-29 19:05:00,
2013-04-29 14:10:00,82.6,54.5,29.43,WSW,246,15.0,18.0,38,0.00,,---,0.00,700.00,VWS V14.01,2013-04-29 19:10:00,
2013-04-29 14:15:00,82.6,54.5,29.43,SW,234,10.0,15.0,38,0.00,,---,0.00,772.00,VWS V14.01,2013-04-29 19:15:00,
2013-04-29 14:20:00,83.2,55.0,29.43,SSW,203,14.0,16.0,38,0.00,,---,0.00,889.00,VWS V14.01,2013-04-29 19:20:00,
2013-04-29 14:25:00,83.2,53.5,29.43,WNW,296,11.0,17.0,36,0.00,,---,0.00,915.00,VWS V14.01,2013-04-29 19:25:00,
2013-04-29 14:30:00,83.6,51.5,29.42,NW,325,16.0,18.0,33,0.00,,---,0.00,929.00,VWS V14.01,2013-04-29 19:30:00,
2013-04-29 14:35:00,83.6,50.7,29.42,SW,223,17.0,18.0,32,0.00,,---,0.00,915.00,VWS V14.01,2013-04-29 19:35:00,
2013-04-29 14:40:00,84.0,50.2,29.42,SW,219,19.0,21.0,31,0.00,,---,0.00,915.00,VWS V14.01,2013-04-29 19:40:00,
2013-04-29 14:45:00,83.8,50.0,29.42,WNW,288,13.0,20.0,31,0.00,,---,0.00,882.00,VWS V14.01,2013-04-29 19:45:00,
2013-04-29 14:50:00,84.0,51.0,29.42,SW,219,14.0,19.0,32,0.00,,---,0.00,874.00,VWS V14.01,2013-04-29 19:50:00,
2013-04-29 14:55:00,84.0,53.4,29.42,SW,217,17.0,19.0,35,0.00,,---,0.00,864.00,VWS V14.01,2013-04-29 19:55:00,
2013-04-29 15:00:00,84.0,52.6,29.41,SW,219,19.0,20.0,34,0.00,,---,0.00,859.00,VWS V14.01,2013-04-29 20:00:00,
2013-04-29 15:05:00,83.8,53.3,29.41,SW,222,13.0,15.0,35,0.00,,---,0.00,843.00,VWS V14.01,2013-04-29 20:05:00,
2013-04-29 15:10:00,84.0,52.6,29.41,SW,216,13.0,19.0,34,0.00,,---,0.00,839.00,VWS V14.01,2013-04-29 20:10:00,
2013-04-29 15:11:00,84.0,52.6,29.41,SW,220,11.0,13.0,34,0.00,,---,0.00,839.00,VWS V14.01,2013-04-29 20:11:00,
2013-04-29 15:15:00,84.3,52.1,29.41,SW,220,13.0,17.0,33,0.00,,---,0.00,830.00,VWS V14.01,2013-04-29 20:15:00,
2013-04-29 15:16:00,84.3,52.1,29.41,SW,215,11.0,13.0,33,0.00,,---,0.00,830.00,VWS V14.01,2013-04-29 20:16:00,
2013-04-29 15:20:00,84.1,51.1,29.41,SW,216,12.0,20.0,32,0.00,,---,0.00,818.00,VWS V14.01,2013-04-29 20:20:00,
2013-04-29 15:21:00,84.1,51.1,29.41,SSW,196,12.0,13.0,32,0.00,,---,0.00,818.00,VWS V14.01,2013-04-29 20:21:00,
2013-04-29 15:25:00,84.1,52.7,29.41,SW,219,21.0,21.0,34,0.00,,---,0.00,809.00,VWS V14.01,2013-04-29 20:25:00,
2013-04-29 15:26:00,84.1,52.7,29.41,SSW,213,20.0,21.0,34,0.00,,---,0.00,809.00,VWS V14.01,2013-04-29 20:26:00,
2013-04-29 15:30:00,84.5,53.1,29.40,South,188,12.0,21.0,34,0.00,,---,0.00,797.00,VWS V14.01,2013-04-29 20:30:00,
2013-04-29 15:31:00,84.5,53.9,29.40,SW,223,11.0,12.0,35,0.00,,---,0.00,797.00,VWS V14.01,2013-04-29 20:31:00,
2013-04-29 15:35:00,84.7,53.3,29.40,SW,224,13.0,20.0,34,0.00,,---,0.00,787.00,VWS V14.01,2013-04-29 20:35:00,
2013-04-29 15:36:00,84.7,53.3,29.40,SW,215,16.0,17.0,34,0.00,,---,0.00,787.00,VWS V14.01,2013-04-29 20:36:00,
2013-04-29 15:40:00,84.7,54.8,29.40,SW,215,14.0,20.0,36,0.00,,---,0.00,776.00,VWS V14.01,2013-04-29 20:40:00,
2013-04-29 15:41:00,84.7,54.8,29.40,South,189,10.0,15.0,36,0.00,,---,0.00,772.00,VWS V14.01,2013-04-29 20:41:00,
2013-04-29 15:45:00,84.9,55.0,29.38,NNW,339,18.0,22.0,36,0.00,,---,0.00,769.00,VWS V14.01,2013-04-29 20:45:00,
2013-04-29 15:46:00,84.9,55.0,29.38,SW,219,18.0,26.0,36,0.00,,---,0.00,765.00,VWS V14.01,2013-04-29 20:46:00,
2013-04-29 15:50:00,85.1,55.2,29.38,South,185,13.0,26.0,36,0.00,,---,0.00,753.00,VWS V14.01,2013-04-29 20:50:00,
2013-04-29 15:51:00,85.1,55.2,29.38,SSW,192,18.0,22.0,36,0.00,,---,0.00,751.00,VWS V14.01,2013-04-29 20:51:00,
2013-04-29 15:55:00,84.9,55.8,29.38,SSE,157,11.0,22.0,37,0.00,,---,0.00,743.00,VWS V14.01,2013-04-29 20:55:00,
2013-04-29 15:56:00,84.9,55.8,29.38,South,184,13.0,18.0,37,0.00,,---,0.00,739.00,VWS V14.01,2013-04-29 20:56:00,
2013-04-29 16:00:00,85.1,54.4,29.38,SSW,198,24.0,26.0,35,0.00,,---,0.00,734.00,VWS V14.01,2013-04-29 21:00:00,
2013-04-29 16:01:00,85.1,54.4,29.38,SW,219,20.0,24.0,35,0.00,,---,0.00,734.00,VWS V14.01,2013-04-29 21:01:00,
2013-04-29 16:05:00,85.5,54.8,29.38,South,181,16.0,24.0,35,0.00,,---,0.00,723.00,VWS V14.01,2013-04-29 21:05:00,
2013-04-29 16:06:00,85.5,54.8,29.38,South,169,8.0,16.0,35,0.00,,---,0.00,718.00,VWS V14.01,2013-04-29 21:06:00,
2013-04-29 16:10:00,85.1,52.8,29.38,SW,219,12.0,28.0,33,0.00,,---,0.00,707.00,VWS V14.01,2013-04-29 21:10:00,
2013-04-29 16:12:00,85.1,54.4,29.38,WSW,254,20.0,21.0,35,0.00,,---,0.00,707.00,VWS V14.01,2013-04-29 21:12:00,
2013-04-29 16:15:00,85.3,53.0,29.37,SW,222,12.0,26.0,33,0.00,,---,0.00,695.00,VWS V14.01,2013-04-29 21:15:00,
2013-04-29 16:17:00,85.3,53.8,29.37,South,175,14.0,22.0,34,0.00,,---,0.00,695.00,VWS V14.01,2013-04-29 21:17:00,
2013-04-29 16:20:00,85.5,55.5,29.37,SSW,205,10.0,22.0,36,0.00,,---,0.00,681.00,VWS V14.01,2013-04-29 21:20:00,
2013-04-29 16:22:00,85.5,55.5,29.37,SSE,164,12.0,22.0,36,0.00,,---,0.00,679.00,VWS V14.01,2013-04-29 21:22:00,
2013-04-29 16:25:00,85.3,58.3,29.37,South,175,16.0,22.0,40,0.00,,---,0.00,665.00,VWS V14.01,2013-04-29 21:25:00,
2013-04-29 16:27:00,85.1,58.8,29.37,SW,216,16.0,18.0,41,0.00,,---,0.00,662.00,VWS V14.01,2013-04-29 21:27:00,
2013-04-29 16:30:00,84.5,58.9,29.36,SW,229,11.0,19.0,42,0.00,,---,0.00,655.00,VWS V14.01,2013-04-29 21:30:00,
2013-04-29 16:32:00,84.5,58.2,29.36,SSE,157,12.0,19.0,41,0.00,,---,0.00,649.00,VWS V14.01,2013-04-29 21:32:00,
2013-04-29 16:35:00,84.3,58.7,29.36,NNW,339,16.0,19.0,42,0.00,,---,0.00,642.00,VWS V14.01,2013-04-29 21:35:00,
2013-04-29 16:37:00,84.3,58.7,29.36,NW,308,14.0,20.0,42,0.00,,---,0.00,635.00,VWS V14.01,2013-04-29 21:37:00,
2013-04-29 16:40:00,84.3,58.1,29.36,North,357,14.0,20.0,41,0.00,,---,0.00,632.00,VWS V14.01,2013-04-29 21:40:00,
2013-04-29 16:42:00,84.1,57.9,29.36,NNW,347,12.0,18.0,41,0.00,,---,0.00,630.00,VWS V14.01,2013-04-29 21:42:00,
2013-04-29 16:45:00,84.3,58.1,29.36,SSW,203,10.0,27.0,41,0.00,,---,0.00,621.00,VWS V14.01,2013-04-29 21:45:00,
2013-04-29 16:47:00,84.5,58.9,29.36,SW,236,20.0,25.0,42,0.00,,---,0.00,614.00,VWS V14.01,2013-04-29 21:47:00,
2013-04-29 16:50:00,84.3,58.1,29.36,SSE,160,12.0,25.0,41,0.00,,---,0.00,605.00,VWS V14.01,2013-04-29 21:50:00,
2013-04-29 16:52:00,84.3,58.1,29.36,WSW,248,18.0,21.0,41,0.00,,---,0.00,602.00,VWS V14.01,2013-04-29 21:52:00,
2013-04-29 16:55:00,84.0,57.1,29.36,SSW,203,18.0,26.0,40,0.00,,---,0.00,593.00,VWS V14.01,2013-04-29 21:55:00,
2013-04-29 16:57:00,84.0,57.1,29.36,SSW,198,13.0,21.0,40,0.00,,---,0.00,582.00,VWS V14.01,2013-04-29 21:57:00,
2013-04-29 17:00:00,84.0,57.8,29.36,West,261,17.0,24.0,41,0.00,,---,0.00,575.00,VWS V14.01,2013-04-29 22:00:00,
2013-04-29 17:02:00,84.0,57.1,29.36,WSW,247,14.0,22.0,40,0.00,,---,0.00,572.00,VWS V14.01,2013-04-29 22:02:00,
2013-04-29 17:05:00,84.0,57.8,29.36,WSW,253,19.0,25.0,41,0.00,,---,0.00,563.00,VWS V14.01,2013-04-29 22:05:00,
2013-04-29 17:07:00,84.1,56.5,29.36,NW,316,19.0,25.0,39,0.00,,---,0.00,554.00,VWS V14.01,2013-04-29 22:07:00,
2013-04-29 17:10:00,84.0,56.4,29.36,SW,216,17.0,25.0,39,0.00,,---,0.00,544.00,VWS V14.01,2013-04-29 22:10:00,
2013-04-29 17:12:00,84.0,56.4,29.36,SSW,203,14.0,22.0,39,0.00,,---,0.00,538.00,VWS V14.01,2013-04-29 22:12:00,
2013-04-29 17:15:00,84.0,56.4,29.35,SSW,199,22.0,27.0,39,0.00,,---,0.00,526.00,VWS V14.01,2013-04-29 22:15:00,
2013-04-29 17:18:00,84.0,56.4,29.35,SSE,165,19.0,25.0,39,0.00,,---,0.00,523.00,VWS V14.01,2013-04-29 22:18:00,
2013-04-29 17:20:00,84.0,57.8,29.35,SSW,200,22.0,28.0,41,0.00,,---,0.00,510.00,VWS V14.01,2013-04-29 22:20:00,
2013-04-29 17:23:00,84.0,57.8,29.35,SW,226,16.0,28.0,41,0.00,,---,0.00,503.00,VWS V14.01,2013-04-29 22:23:00,
2013-04-29 17:25:00,84.0,57.8,29.35,SW,236,11.0,28.0,41,0.00,,---,0.00,494.00,VWS V14.01,2013-04-29 22:25:00,
2013-04-29 17:28:00,84.0,57.8,29.35,SW,226,28.0,28.0,41,0.00,,---,0.00,491.00,VWS V14.01,2013-04-29 22:28:00,
2013-04-29 17:30:00,83.8,56.9,29.34,North,354,17.0,28.0,40,0.00,,---,0.00,482.00,VWS V14.01,2013-04-29 22:30:00,
2013-04-29 17:33:00,83.8,57.6,29.34,West,265,22.0,22.0,41,0.00,,---,0.00,450.00,VWS V14.01,2013-04-29 22:33:00,
2013-04-29 17:35:00,83.6,57.4,29.34,South,189,22.0,22.0,41,0.00,,---,0.00,466.00,VWS V14.01,2013-04-29 22:35:00,
2013-04-29 17:38:00,83.6,58.1,29.34,WNW,295,11.0,25.0,42,0.00,,---,0.00,461.00,VWS V14.01,2013-04-29 22:38:00,
2013-04-29 17:40:00,83.6,58.1,29.34,WNW,282,29.0,29.0,42,0.00,,---,0.00,457.00,VWS V14.01,2013-04-29 22:40:00,
2013-04-29 17:43:00,83.4,58.6,29.34,WSW,257,16.0,29.0,43,0.00,,---,0.00,456.00,VWS V14.01,2013-04-29 22:43:00,
2013-04-29 17:45:00,83.4,57.9,29.34,SW,216,14.0,29.0,42,0.00,,---,0.00,442.00,VWS V14.01,2013-04-29 22:45:00,
2013-04-29 17:48:00,83.4,57.9,29.34,SW,229,17.0,25.0,42,0.00,,---,0.00,399.00,VWS V14.01,2013-04-29 22:48:00,
2013-04-29 17:50:00,83.2,57.1,29.34,SSW,200,26.0,29.0,41,0.00,,---,0.00,408.00,VWS V14.01,2013-04-29 22:50:00,
2013-04-29 17:53:00,83.0,56.9,29.34,SW,226,17.0,28.0,41,0.00,,---,0.00,392.00,VWS V14.01,2013-04-29 22:53:00,
2013-04-29 17:55:00,83.0,56.9,29.34,SSW,209,18.0,31.0,41,0.00,,---,0.00,406.00,VWS V14.01,2013-04-29 22:55:00,
2013-04-29 17:58:00,83.0,58.2,29.34,South,185,21.0,25.0,43,0.00,,---,0.00,403.00,VWS V14.01,2013-04-29 22:58:00,
2013-04-29 18:00:00,82.8,56.7,29.33,South,182,20.0,26.0,41,0.00,,---,0.00,403.00,VWS V14.01,2013-04-29 23:00:00,
2013-04-29 18:03:00,82.8,56.7,29.33,North,0,19.0,27.0,41,0.00,,---,0.00,403.00,VWS V14.01,2013-04-29 23:03:00,
2013-04-29 18:05:00,82.8,57.4,29.33,SW,236,21.0,27.0,42,0.00,,---,0.00,419.00,VWS V14.01,2013-04-29 23:05:00,
2013-04-29 18:08:00,83.0,56.9,29.33,NW,305,18.0,28.0,41,0.00,,---,0.00,408.00,VWS V14.01,2013-04-29 23:08:00,
2013-04-29 18:10:00,83.2,57.1,29.33,WSW,243,25.0,28.0,41,0.00,,---,0.00,392.00,VWS V14.01,2013-04-29 23:10:00,
2013-04-29 18:13:00,83.2,57.1,29.33,WSW,250,12.0,25.0,41,0.00,,---,0.00,359.00,VWS V14.01,2013-04-29 23:13:00,
2013-04-29 18:15:00,83.2,57.1,29.33,SSE,151,13.0,25.0,41,0.00,,---,0.00,347.00,VWS V14.01,2013-04-29 23:15:00,
2013-04-29 18:18:00,83.0,56.9,29.33,NW,305,14.0,29.0,41,0.00,,---,0.00,271.00,VWS V14.01,2013-04-29 23:18:00,
2013-04-29 18:20:00,82.8,57.4,29.33,SSW,200,14.0,29.0,42,0.00,,---,0.00,109.00,VWS V14.01,2013-04-29 23:20:00,
2013-04-29 18:23:00,82.4,57.7,29.33,WSW,256,13.0,27.0,43,0.00,,---,0.00,320.00,VWS V14.01,2013-04-29 23:23:00,
2013-04-29 18:25:00,82.6,58.5,29.33,SSE,165,12.0,27.0,44,0.00,,---,0.00,315.00,VWS V14.01,2013-04-29 23:25:00,
2013-04-29 18:28:00,82.8,58.0,29.33,North,350,19.0,25.0,43,0.00,,---,0.00,311.00,VWS V14.01,2013-04-29 23:28:00,
2013-04-29 18:30:00,82.8,57.4,29.32,SW,236,14.0,25.0,42,0.00,,---,0.00,311.00,VWS V14.01,2013-04-29 23:30:00,
2013-04-29 18:34:00,83.0,58.2,29.32,West,281,14.0,19.0,43,0.00,,---,0.00,306.00,VWS V14.01,2013-04-29 23:34:00,
2013-04-29 18:35:00,83.0,58.2,29.32,SW,226,8.0,25.0,43,0.00,,---,0.00,299.00,VWS V14.01,2013-04-29 23:35:00,
2013-04-29 18:39:00,83.2,57.8,29.32,WSW,256,16.0,25.0,42,0.00,,---,0.00,280.00,VWS V14.01,2013-04-29 23:39:00,
2013-04-29 18:40:00,83.2,57.1,29.32,WNW,292,14.0,25.0,41,0.00,,---,0.00,274.00,VWS V14.01,2013-04-29 23:40:00,
2013-04-29 18:44:00,83.2,57.8,29.32,NW,305,20.0,31.0,42,0.00,,---,0.00,259.00,VWS V14.01,2013-04-29 23:44:00,
2013-04-29 18:45:00,83.2,58.4,29.32,WNW,292,14.0,31.0,43,0.00,,---,0.00,246.00,VWS V14.01,2013-04-29 23:45:00,
2013-04-29 18:49:00,83.0,56.9,29.32,SW,224,13.0,26.0,41,0.00,,---,0.00,227.00,VWS V14.01,2013-04-29 23:49:00,
2013-04-29 18:50:00,83.0,56.2,29.32,WSW,256,17.0,26.0,40,0.00,,---,0.00,222.00,VWS V14.01,2013-04-29 23:50:00,
2013-04-29 18:54:00,82.8,57.4,29.32,WNW,294,21.0,22.0,42,0.00,,---,0.00,208.00,VWS V14.01,2013-04-29 23:54:00,
2013-04-29 18:55:00,82.8,56.7,29.32,SW,226,17.0,22.0,41,0.00,,---,0.00,197.00,VWS V14.01,2013-04-29 23:55:00,
2013-04-29 18:59:00,82.4,56.4,29.32,West,278,16.0,29.0,41,0.00,,---,0.00,190.00,VWS V14.01,2013-04-29 23:59:00,
2013-04-29 19:00:00,82.4,56.4,29.31,NNW,344,17.0,29.0,41,0.00,,---,0.00,181.00,VWS V14.01,2013-04-30 00:00:00,
2013-04-29 19:04:00,82.2,56.8,29.31,NW,322,15.0,24.0,42,0.00,,---,0.00,174.00,VWS V14.01,2013-04-30 00:04:00,
2013-04-29 19:05:00,82.0,56.7,29.31,NW,326,17.0,24.0,42,0.00,,---,0.00,165.00,VWS V14.01,2013-04-30 00:05:00,
2013-04-29 19:09:00,81.8,55.8,29.31,WSW,237,13.0,30.0,41,0.00,,---,0.00,146.00,VWS V14.01,2013-04-30 00:09:00,
2013-04-29 19:10:00,81.8,55.8,29.31,WNW,296,29.0,30.0,41,0.00,,---,0.00,143.00,VWS V14.01,2013-04-30 00:10:00,
2013-04-29 19:14:00,81.6,55.6,29.31,West,265,17.0,29.0,41,0.00,,---,0.00,132.00,VWS V14.01,2013-04-30 00:14:00,
2013-04-29 19:15:00,81.4,55.5,29.31,West,278,21.0,29.0,41,0.00,,---,0.00,128.00,VWS V14.01,2013-04-30 00:15:00,
2013-04-29 19:19:00,81.2,55.3,29.31,SW,226,19.0,27.0,41,0.00,,---,0.00,118.00,VWS V14.01,2013-04-30 00:19:00,
2013-04-29 19:20:00,81.1,55.2,29.31,SW,215,17.0,27.0,41,0.00,,---,0.00,113.00,VWS V14.01,2013-04-30 00:20:00,
2013-04-29 19:24:00,80.9,55.0,29.31,SW,224,18.0,26.0,41,0.00,,---,0.00,104.00,VWS V14.01,2013-04-30 00:24:00,
2013-04-29 19:25:00,80.9,55.7,29.31,NW,323,19.0,26.0,42,0.00,,---,0.00,93.00,VWS V14.01,2013-04-30 00:25:00,
2013-04-29 19:29:00,80.5,55.3,29.31,NW,323,16.0,28.0,42,0.00,,---,0.00,88.00,VWS V14.01,2013-04-30 00:29:00,
2013-04-29 19:30:00,80.3,55.1,29.31,WSW,243,12.0,28.0,42,0.00,,---,0.00,86.00,VWS V14.01,2013-04-30 00:30:00,
2013-04-29 19:34:00,80.1,55.0,29.31,WNW,292,18.0,27.0,42,0.00,,---,0.00,77.00,VWS V14.01,2013-04-30 00:34:00,
2013-04-29 19:35:00,80.1,55.0,29.31,NW,320,24.0,27.0,42,0.00,,---,0.00,48.00,VWS V14.01,2013-04-30 00:35:00,
2013-04-29 19:39:00,79.8,55.3,29.31,NNW,344,18.0,25.0,43,0.00,,---,0.00,37.00,VWS V14.01,2013-04-30 00:39:00,
2013-04-29 19:40:00,79.8,55.3,29.31,WNW,284,18.0,31.0,43,0.00,,---,0.00,40.00,VWS V14.01,2013-04-30 00:40:00,
2013-04-29 19:44:00,79.6,55.2,29.31,NW,316,19.0,26.0,43,0.00,,---,0.00,37.00,VWS V14.01,2013-04-30 00:44:00,
2013-04-29 19:45:00,79.4,55.0,29.31,North,349,17.0,27.0,43,0.00,,---,0.00,39.00,VWS V14.01,2013-04-30 00:45:00,
2013-04-29 19:50:00,79.2,55.4,29.31,WSW,241,17.0,26.0,44,0.00,,---,0.00,33.00,VWS V14.01,2013-04-30 00:50:00,
2013-04-29 19:55:00,78.8,55.1,29.31,WSW,241,12.0,24.0,44,0.00,,---,0.00,26.00,VWS V14.01,2013-04-30 00:55:00,
2013-04-29 20:00:00,78.5,54.8,29.31,North,359,13.0,25.0,44,0.00,,---,0.00,18.00,VWS V14.01,2013-04-30 01:00:00,
2013-04-29 20:05:00,78.1,55.0,29.31,West,263,14.0,24.0,45,0.00,,---,0.00,12.00,VWS V14.01,2013-04-30 01:05:00,
2013-04-29 20:10:00,77.7,55.3,29.31,NNW,336,16.0,25.0,46,0.00,,---,0.00,7.00,VWS V14.01,2013-04-30 01:10:00,
2013-04-29 20:15:00,77.2,55.4,29.30,North,359,18.0,21.0,47,0.00,,---,0.00,5.00,VWS V14.01,2013-04-30 01:15:00,
2013-04-29 20:20:00,76.8,55.7,29.30,North,354,13.0,19.0,48,0.00,,---,0.00,5.00,VWS V14.01,2013-04-30 01:20:00,
2013-04-29 20:25:00,76.3,55.2,29.30,West,260,11.0,17.0,48,0.00,,---,0.00,0.00,VWS V14.01,2013-04-30 01:25:00,
2013-04-29 20:30:00,76.1,56.1,29.31,WNW,292,8.0,17.0,50,0.00,,---,0.00,0.00,VWS V14.01,2013-04-30 01:30:00,
2013-04-29 20:35:00,75.8,56.4,29.31,South,175,15.0,19.0,51,0.00,,---,0.00,0.00,VWS V14.01,2013-04-30 01:35:00,
2013-04-29 20:40:00,75.6,56.8,29.31,North,354,18.0,24.0,52,0.00,,---,0.00,0.00,VWS V14.01,2013-04-30 01:40:00,
2013-04-29 20:45:00,75.6,56.8,29.31,North,353,13.0,21.0,52,0.00,,---,0.00,0.00,VWS V14.01,2013-04-30 01:45:00,
2013-04-29 20:50:00,75.4,57.1,29.31,WNW,298,9.0,21.0,53,0.00,,---,0.00,0.00,VWS V14.01,2013-04-30 01:50:00,
2013-04-29 20:55:00,75.3,56.5,29.31,NNW,346,12.0,28.0,52,0.00,,---,0.00,0.00,VWS V14.01,2013-04-30 01:55:00,
2013-04-29 21:00:00,74.9,56.6,29.31,SW,224,19.0,25.0,53,0.00,,---,0.00,0.00,VWS V14.01,2013-04-30 02:00:00,
2013-04-29 21:05:00,74.9,56.1,29.31,NNW,337,21.0,30.0,52,0.00,,---,0.00,0.00,VWS V14.01,2013-04-30 02:05:00,
2013-04-29 21:10:00,74.9,55.6,29.31,SSW,202,20.0,28.0,51,0.00,,---,0.00,0.00,VWS V14.01,2013-04-30 02:10:00,
2013-04-29 21:15:00,75.3,54.8,29.31,WNW,287,28.0,32.0,49,0.00,,---,0.00,0.00,VWS V14.01,2013-04-30 02:15:00,
2013-04-29 21:20:00,75.1,54.7,29.31,SSW,208,32.0,32.0,49,0.00,,---,0.00,0.00,VWS V14.01,2013-04-30 02:20:00,
2013-04-29 21:25:00,75.3,54.3,29.31,SSW,210,20.0,34.0,48,0.00,,---,0.00,0.00,VWS V14.01,2013-04-30 02:25:00,
2013-04-29 21:26:00,75.3,54.3,29.31,West,261,24.0,24.0,48,0.00,,---,0.00,0.00,VWS V14.01,2013-04-30 02:26:00,
2013-04-29 21:30:00,75.1,54.1,29.31,NW,315,29.0,31.0,48,0.00,,---,0.00,0.00,VWS V14.01,2013-04-30 02:30:00,
2013-04-29 21:31:00,75.1,54.1,29.31,SW,224,26.0,29.0,48,0.00,,---,0.00,0.00,VWS V14.01,2013-04-30 02:31:00,
2013-04-29 21:35:00,75.1,54.1,29.31,WSW,240,22.0,33.0,48,0.00,,---,0.00,0.00,VWS V14.01,2013-04-30 02:35:00,
2013-04-29 21:36:00,75.1,54.1,29.31,NW,319,33.0,33.0,48,0.00,,---,0.00,0.00,VWS V14.01,2013-04-30 02:36:00,
2013-04-29 21:40:00,75.1,54.1,29.31,NW,320,33.0,33.0,48,0.00,,---,0.00,0.00,VWS V14.01,2013-04-30 02:40:00,
2013-04-29 21:41:00,75.1,54.1,29.31,SW,220,19.0,33.0,48,0.00,,---,0.00,0.00,VWS V14.01,2013-04-30 02:41:00,
2013-04-29 21:45:00,74.9,53.9,29.31,West,268,31.0,33.0,48,0.00,,---,0.00,0.00,VWS V14.01,2013-04-30 02:45:00,
2013-04-29 21:46:00,74.9,53.9,29.31,WNW,288,24.0,31.0,48,0.00,,---,0.00,0.00,VWS V14.01,2013-04-30 02:46:00,
2013-04-29 21:50:00,74.9,53.9,29.31,SSW,200,18.0,36.0,48,0.00,,---,0.00,0.00,VWS V14.01,2013-04-30 02:50:00,
2013-04-29 21:51:00,74.9,53.9,29.31,WNW,291,30.0,31.0,48,0.00,,---,0.00,0.00,VWS V14.01,2013-04-30 02:51:00,
2013-04-29 21:55:00,74.9,53.3,29.31,WSW,254,21.0,36.0,47,0.00,,---,0.00,0.00,VWS V14.01,2013-04-30 02:55:00,
2013-04-29 21:56:00,74.9,53.3,29.31,WNW,284,24.0,30.0,47,0.00,,---,0.00,0.00,VWS V14.01,2013-04-30 02:56:00,
2013-04-29 22:00:00,74.7,53.2,29.31,SW,226,22.0,32.0,47,0.00,,---,0.00,0.00,VWS V14.01,2013-04-30 03:00:00,
2013-04-29 22:01:00,74.7,53.2,29.31,WSW,253,28.0,32.0,47,0.00,,---,0.00,0.00,VWS V14.01,2013-04-30 03:01:00,
2013-04-29 22:05:00,74.7,53.2,29.31,WNW,284,25.0,38.0,47,0.00,,---,0.00,0.00,VWS V14.01,2013-04-30 03:05:00,
2013-04-29 22:06:00,74.7,53.2,29.31,West,277,16.0,28.0,47,0.00,,---,0.00,0.00,VWS V14.01,2013-04-30 03:06:00,
2013-04-29 22:10:00,74.7,52.6,29.31,WSW,258,27.0,34.0,46,0.00,,---,0.00,0.00,VWS V14.01,2013-04-30 03:10:00,
2013-04-29 22:11:00,74.6,52.5,29.31,SSW,210,31.0,33.0,46,0.00,,---,0.00,0.00,VWS V14.01,2013-04-30 03:11:00,
2013-04-29 22:15:00,74.6,52.5,29.31,SW,227,19.0,35.0,46,0.00,,---,0.00,0.00,VWS V14.01,2013-04-30 03:15:00,
2013-04-29 22:16:00,74.6,52.5,29.31,SW,232,29.0,30.0,46,0.00,,---,0.00,0.00,VWS V14.01,2013-04-30 03:16:00,
2013-04-29 22:20:00,74.4,52.3,29.31,SW,217,29.0,34.0,46,0.00,,---,0.00,0.00,VWS V14.01,2013-04-30 03:20:00,
2013-04-29 22:21:00,74.4,52.9,29.31,SW,222,21.0,29.0,47,0.00,,---,0.00,0.00,VWS V14.01,2013-04-30 03:21:00,
2013-04-29 22:25:00,74.2,52.7,29.31,SSW,202,24.0,35.0,47,0.00,,---,0.00,0.00,VWS V14.01,2013-04-30 03:25:00,
2013-04-29 22:26:00,74.2,52.7,29.31,SSW,208,29.0,32.0,47,0.00,,---,0.00,0.00,VWS V14.01,2013-04-30 03:26:00,
2013-04-29 22:30:00,74.0,52.5,29.33,WSW,248,27.0,36.0,47,0.00,,---,0.00,0.00,VWS V14.01,2013-04-30 03:30:00,
2013-04-29 22:31:00,74.0,52.5,29.33,WSW,253,24.0,29.0,47,0.00,,---,0.00,0.00,VWS V14.01,2013-04-30 03:31:00,
2013-04-29 22:35:00,73.9,52.4,29.33,WSW,243,25.0,29.0,47,0.00,,---,0.00,0.00,VWS V14.01,2013-04-30 03:35:00,
2013-04-29 22:36:00,73.9,52.4,29.33,SSW,205,19.0,29.0,47,0.00,,---,0.00,0.00,VWS V14.01,2013-04-30 03:36:00,
2013-04-29 22:40:00,73.9,52.4,29.33,SW,234,22.0,29.0,47,0.00,,---,0.00,0.00,VWS V14.01,2013-04-30 03:40:00,
2013-04-29 22:42:00,73.9,53.0,29.33,NNW,340,20.0,28.0,48,0.00,,---,0.00,0.00,VWS V14.01,2013-04-30 03:42:00,
2013-04-29 22:45:00,73.7,52.8,29.33,SSW,213,35.0,35.0,48,0.00,,---,0.00,0.00,VWS V14.01,2013-04-30 03:45:00,
2013-04-29 22:47:00,73.7,52.8,29.33,SW,234,18.0,35.0,48,0.00,,---,0.00,0.00,VWS V14.01,2013-04-30 03:47:00,
2013-04-29 22:50:00,73.5,52.6,29.33,WSW,243,18.0,35.0,48,0.00,,---,0.00,0.00,VWS V14.01,2013-04-30 03:50:00,
2013-04-29 22:52:00,73.5,52.6,29.33,WNW,289,31.0,32.0,48,0.00,,---,0.00,0.00,VWS V14.01,2013-04-30 03:52:00,
2013-04-29 22:55:00,73.3,52.5,29.33,WNW,288,27.0,32.0,48,0.00,,---,0.00,0.00,VWS V14.01,2013-04-30 03:55:00,
2013-04-29 22:57:00,73.3,52.5,29.33,SW,219,19.0,31.0,48,0.00,,---,0.00,0.00,VWS V14.01,2013-04-30 03:57:00,
2013-04-29 23:00:00,73.2,52.4,29.34,West,280,30.0,31.0,48,0.00,,---,0.00,0.00,VWS V14.01,2013-04-30 04:00:00,
2013-04-29 23:01:00,73.2,52.4,29.34,West,270,24.0,30.0,48,0.00,,---,0.00,0.00,VWS V14.01,2013-04-30 04:01:00,
2013-04-29 23:02:00,73.2,52.4,29.34,SW,226,21.0,30.0,48,0.00,,---,0.00,0.00,VWS V14.01,2013-04-30 04:02:00,
2013-04-29 23:05:00,73.0,52.2,29.34,SSW,210,18.0,35.0,48,0.00,,---,0.00,0.00,VWS V14.01,2013-04-30 04:05:00,
2013-04-29 23:07:00,73.0,52.2,29.34,SSW,205,19.0,33.0,48,0.00,,---,0.00,0.00,VWS V14.01,2013-04-30 04:07:00,
2013-04-29 23:10:00,73.0,52.2,29.34,SSW,212,19.0,33.0,48,0.00,,---,0.00,0.00,VWS V14.01,2013-04-30 04:10:00,
2013-04-29 23:12:00,72.8,52.0,29.34,NW,318,19.0,28.0,48,0.00,,---,0.00,0.00,VWS V14.01,2013-04-30 04:12:00,
2013-04-29 23:15:00,72.7,51.9,29.34,WSW,257,27.0,30.0,48,0.00,,---,0.00,0.00,VWS V14.01,2013-04-30 04:15:00,
2013-04-29 23:17:00,72.7,51.9,29.34,SW,232,28.0,32.0,48,0.00,,---,0.00,0.00,VWS V14.01,2013-04-30 04:17:00,
2013-04-29 23:20:00,72.7,51.9,29.34,SW,220,28.0,32.0,48,0.00,,---,0.00,0.00,VWS V14.01,2013-04-30 04:20:00,
2013-04-29 23:22:00,72.7,51.9,29.34,SW,220,26.0,28.0,48,0.00,,---,0.00,0.00,VWS V14.01,2013-04-30 04:22:00,
2013-04-29 23:25:00,72.7,51.9,29.34,SSW,208,19.0,28.0,48,0.00,,---,0.00,0.00,VWS V14.01,2013-04-30 04:25:00,
2013-04-29 23:27:00,72.5,51.7,29.34,SW,216,26.0,29.0,48,0.00,,---,0.00,0.00,VWS V14.01,2013-04-30 04:27:00,
2013-04-29 23:34:00,72.7,51.9,29.34,SW,232,29.0,29.0,48,0.00,,---,0.00,0.00,VWS V14.01,2013-04-30 04:34:00,
2013-04-29 23:35:00,72.5,51.7,29.34,SW,226,22.0,31.0,48,0.00,,---,0.00,0.00,VWS V14.01,2013-04-30 04:35:00,
2013-04-29 23:39:00,72.5,51.7,29.34,SW,223,28.0,30.0,48,0.00,,---,0.00,0.00,VWS V14.01,2013-04-30 04:39:00,
2013-04-29 23:40:00,72.5,51.7,29.34,West,264,24.0,30.0,48,0.00,,---,0.00,0.00,VWS V14.01,2013-04-30 04:40:00,
2013-04-29 23:44:00,72.3,51.5,29.34,SW,224,32.0,34.0,48,0.00,,---,0.00,0.00,VWS V14.01,2013-04-30 04:44:00,
2013-04-29 23:45:00,72.3,51.5,29.34,SW,234,20.0,34.0,48,0.00,,---,0.00,0.00,VWS V14.01,2013-04-30 04:45:00,
2013-04-29 23:49:00,72.1,51.9,29.34,SW,233,28.0,37.0,49,0.00,,---,0.00,0.00,VWS V14.01,2013-04-30 04:49:00,
2013-04-29 23:50:00,72.1,51.9,29.34,WSW,256,20.0,37.0,49,0.00,,---,0.00,0.00,VWS V14.01,2013-04-30 04:50:00,
2013-04-29 23:54:00,72.0,51.8,29.34,SW,234,25.0,31.0,49,0.00,,---,0.00,0.00,VWS V14.01,2013-04-30 04:54:00,
2013-04-29 23:55:00,72.0,51.8,29.34,West,264,28.0,31.0,49,0.00,,---,0.00,0.00,VWS V14.01,2013-04-30 04:55:00,
2013-04-29 23:59:00,71.8,51.6,29.34,West,263,29.0,33.0,49,0.00,,---,0.00,0.00,VWS V14.01,2013-04-30 04:59:00,